Shelton, WA

9:23 AM PDT on June 25, 2017 (GMT -0700)
Sanderson

Weather History for KSHN - January, 2013

Change the Weather History Date:

Wednesday, January 16, 2013

  Actual Average Record
Temperature  
Mean Temperature 26 °F -  
Max Temperature 34 °F 46 °F 57 °F (1974)
Min Temperature 19 °F 35 °F 19 °F (2013)
Degree Days  
Heating Degree Days 38    
Moisture  
Dew Point 27 °F    
Average Humidity 97    
Maximum Humidity 100    
Minimum Humidity 92    
Precipitation  
Precipitation 0.00 in - - ()
Sea Level Pressure  
Sea Level Pressure 30.57 in    
Wind  
Wind Speed 0 mph (ESE)    
Max Wind Speed 4 mph    
Max Gust Speed -    
Visibility 5 miles    
Events Fog    
Averages and records for this station are not official NWS values.
T = Trace of Precipitation, MM = Missing Value Source: NWS Daily Summary

Daily Weather History Graph

Daily Weather History Graph

Search for Another Location

Airport or City:

Trip Planner

Search our weather history database for the weather conditions in past years. The results will help you decide how hot, cold, wet, or windy it might be!

Date:

Astronomy

Jan. 16, 2013 Rise Set
Actual Time 7:53 AM PST 4:51 PM PST
Civil Twilight 7:19 AM PST 5:25 PM PST
Nautical Twilight 6:41 AM PST 6:03 PM PST
Astronomical Twilight 6:05 AM PST 6:40 PM PST
Moon 10:07 AM PST (1/16) 11:17 PM PST (1/16)
Length of Visible Light 10h 06m
Length of Day
8h 57m
Waxing Crescent, 29% of the Moon is Illuminated
Jan 16
Waxing Crescent
Jan 18
First Quarter
Jan 26
Full
Feb 3
Last Quarter
Feb 9
New

Hourly Weather History & Observations

Time (PST) Temp. Windchill Dew Point Humidity Pressure Visibility Wind Dir Wind Speed Gust Speed Precip Events Conditions
12:53 AM 24.1 °F - 24.1 °F 100% 30.67 in 5.0 mi Calm Calm - N/A   Clear
1:53 AM 23.0 °F - 21.9 °F 96% 30.67 in 10.0 mi Calm Calm - N/A   Clear
2:53 AM 23.0 °F - 21.0 °F 92% 30.68 in 10.0 mi Calm Calm - N/A   Clear
3:53 AM 21.9 °F - 21.0 °F 96% 30.67 in 10.0 mi Calm Calm - N/A   Clear
4:53 AM 21.9 °F - 19.9 °F 92% 30.66 in 10.0 mi Calm Calm - N/A   Clear
5:53 AM 21.9 °F - 19.9 °F 92% 30.65 in 10.0 mi Calm Calm - N/A   Clear
6:53 AM 19.9 °F - 18.0 °F 92% 30.64 in 10.0 mi Calm Calm - N/A   Clear
7:53 AM 19.9 °F - 18.0 °F 92% 30.64 in 10.0 mi Calm Calm - N/A   Clear
8:53 AM 23.0 °F - 23.0 °F 100% 30.65 in 10.0 mi Calm Calm - N/A   Clear
9:53 AM 28.0 °F - 28.0 °F 100% 30.64 in 0.8 mi Calm Calm - N/A   Mist
10:53 AM 30.0 °F - 30.0 °F 100% 30.63 in 0.8 mi Calm Calm - N/A   Mist
11:53 AM 32.0 °F - 30.9 °F 96% 30.62 in 0.5 mi Calm Calm - N/A Fog Fog
12:43 PM 32.0 °F 28.7 °F 32.0 °F 100% 30.58 in 1.0 mi SE 3.5 mph - N/A   Mist
12:53 PM 32.0 °F 28.7 °F 32.0 °F 100% 30.61 in 2.0 mi ENE 3.5 mph - N/A   Overcast
1:02 PM 33.8 °F - 33.8 °F 100% 30.58 in 4.0 mi Calm Calm - N/A   Overcast
1:53 PM 33.1 °F 30.0 °F 33.1 °F 100% 30.59 in 5.0 mi East 3.5 mph - N/A   Overcast
2:53 PM 34.0 °F - 34.0 °F 100% 30.58 in 10.0 mi Calm Calm - N/A   Overcast
3:53 PM 34.0 °F - 34.0 °F 100% 30.57 in 6.0 mi Calm Calm - N/A   Overcast
4:13 PM 33.8 °F - 33.8 °F 100% 30.54 in 1.8 mi Calm Calm - N/A   Overcast
4:24 PM 33.8 °F - 33.8 °F 100% 30.54 in 0.8 mi Calm Calm - N/A   Mist
4:53 PM 32.0 °F - 32.0 °F 100% 30.56 in 0.5 mi Calm Calm - N/A Fog Fog
5:25 PM 30.2 °F - 30.2 °F 100% 30.53 in 1.0 mi Calm Calm - N/A   Mist
5:53 PM 28.9 °F - 28.9 °F 100% 30.56 in 1.0 mi Calm Calm - N/A   Mist
6:15 PM 28.4 °F - 28.4 °F 100% 30.53 in 3.0 mi Calm Calm - N/A   Mostly Cloudy
6:29 PM 28.4 °F - 28.4 °F 100% 30.53 in 9.0 mi Calm Calm - N/A   Partly Cloudy
6:53 PM 28.9 °F - 27.0 °F 92% 30.56 in 10.0 mi Calm Calm - N/A   Clear
7:53 PM 27.0 °F - 26.1 °F 96% 30.55 in 9.0 mi Calm Calm - N/A   Clear
8:39 PM 26.6 °F - 24.8 °F 93% 30.52 in 2.5 mi Calm Calm - N/A   Clear
8:46 PM 26.6 °F - 24.8 °F 93% 30.52 in 4.0 mi Calm Calm - N/A   Clear
8:53 PM 27.0 °F - 26.1 °F 96% 30.54 in 6.0 mi Calm Calm - N/A   Clear
9:53 PM 27.0 °F - 26.1 °F 96% 30.53 in 2.5 mi Calm Calm - N/A   Clear
9:56 PM 26.6 °F - 26.6 °F 100% 30.50 in 1.8 mi Calm Calm - N/A   Partly Cloudy
10:17 PM 26.6 °F - 26.6 °F 100% 30.50 in 3.0 mi Calm Calm - N/A   Partly Cloudy
10:44 PM 24.8 °F - 24.8 °F 100% 30.50 in 1.8 mi Calm Calm - N/A   Clear
10:49 PM 24.8 °F - 24.8 °F 100% 30.50 in 1.0 mi Calm Calm - N/A   Mist
10:53 PM 26.1 °F - 24.1 °F 92% 30.52 in 1.0 mi Calm Calm - N/A   Mist
11:03 PM 26.6 °F - 24.8 °F 93% 30.49 in 1.2 mi Calm Calm - N/A   Partly Cloudy
11:29 PM 24.8 °F - 23.0 °F 93% 30.50 in 3.0 mi Calm Calm - N/A   Partly Cloudy
11:53 PM 25.0 °F - 24.1 °F 96% 30.52 in 5.0 mi Calm Calm - N/A   Clear